EYESAT A (AO-27)

Last updated on Sun Jun 21 2026 00:03:19 GMT+0000 (Coordinated Universal Time)

1 22825U 93061C 26171.42614367 .00000064 00000+0 41444-4 0 9998 2 22825 98.6879 238.8386 0009542 91.4815 268.7461 14.30943014707461
UTC large
Height (km)
Speed (km/s)
/
Latitude / Longitude
Inclination (degrees)
Orbital Period (minutes)
Azimuth
Elevation
Range (km)
Doppler Factor

Next 0 passes for location: London (51.5072 / 0.1276)

No passes found over London.
EYESAT A (AO-27)